Date String (YYYY-MM-DD hh:mm:ss) UTC,Instrument flags,absolute air pressure of the measurement (hPa),sample flow rate (lpm),inlet stack bypass flow (lpm),air temperature of the measurement (°C),ambient temperature measured by the external sensor (°C),aerosol sample conditioner tube jacket temperature (°C),OPC LED temperature (°C),internal box temperature (°C),relative humidity of the measurement (%),span deviation,mass concentration of particles derived from Lorenz-Mie calculation of OPC scattering (μg/m³),mass concentration of particles derived from Lorenz-Mie calculation of OPC scattering (μg/m³),mass concentration of particles derived from Lorenz-Mie calculation of OPC scattering (μg/m³)
DateTimeUTC,F1_M11,P_M11,Q1_M11,Q2_M11,T1_M11,T2_M11,T3_M11,T4_M11,T5_M11,U1_M11,ZSPAN_M11,X0_M11,X2_M11,X1_M11
2023-11-16 10:00:00,SystemResetWarning,0824.4,5.01,000.00,026.3,025.3,000.0,034.8,027.8,7.3,0000.0,0012.63,0004.97,0004.35
2023-11-16 10:01:00,SystemResetWarning,0824.4,4.99,000.00,026.3,025.3,000.0,034.8,027.8,7.2,0000.0,0011.26,0004.57,0004.00
2023-11-16 10:02:00,SystemResetWarning,0824.5,5.00,000.00,026.3,025.3,000.0,034.8,027.8,7.8,0000.0,0010.82,0004.31,0003.74
2023-11-16 10:03:00,SystemResetWarning,0824.4,5.00,000.00,026.3,025.3,000.0,034.8,027.8,8.0,0000.0,0010.43,0004.26,0003.68
2023-11-16 10:04:00,SystemResetWarning,0824.3,5.00,000.00,026.3,025.2,000.0,034.7,027.7,7.7,0000.0,0010.89,0004.22,0003.65
2023-11-16 10:05:00,SystemResetWarning,0824.4,5.01,000.00,026.3,025.2,000.0,034.7,027.7,7.1,0000.0,0010.08,0004.09,0003.53
2023-11-16 10:06:00,SystemResetWarning,0824.5,5.01,000.00,026.3,025.2,000.0,034.7,027.7,7.0,0000.0,0009.20,0004.00,0003.46
2023-11-16 10:07:00,SystemResetWarning,0824.4,4.99,000.00,026.2,025.2,000.0,034.7,027.6,8.0,0000.0,0009.39,0003.89,0003.33
2023-11-16 10:08:00,SystemResetWarning,0824.5,5.00,000.00,026.2,025.2,000.0,034.7,027.7,8.6,0000.0,0009.80,0003.99,0003.41
2023-11-16 10:09:00,SystemResetWarning,0824.5,4.99,000.00,026.2,025.2,000.0,034.7,027.7,9.0,0000.0,0010.48,0004.14,0003.56
2023-11-16 10:10:00,SystemResetWarning,0824.7,5.00,000.00,026.2,025.1,000.0,034.7,027.6,9.1,0000.0,0010.78,0004.25,0003.64
2023-11-16 10:11:00,SystemResetWarning,0824.6,5.00,000.00,026.2,025.1,000.0,034.7,027.6,9.0,0000.0,0010.95,0004.29,0003.64
2023-11-16 10:12:00,SystemResetWarning,0824.5,5.00,000.00,026.2,025.1,000.0,034.7,027.6,8.9,0000.0,0011.67,0004.24,0003.61
2023-11-16 10:13:00,SystemResetWarning,0824.6,5.00,000.00,026.2,025.1,000.0,034.7,027.5,8.5,0000.0,0012.05,0004.32,0003.71
2023-11-16 10:14:00,SystemResetWarning,0824.6,5.00,000.00,026.1,025.1,000.0,034.6,027.6,8.9,0000.0,0013.18,0004.41,0003.82
2023-11-16 10:15:00,SystemResetWarning,0824.7,5.00,000.00,026.1,025.1,000.0,034.6,027.6,8.9,0000.0,0013.64,0004.53,0003.92
2023-11-16 10:16:00,SystemResetWarning,0824.8,5.01,000.00,026.1,025.1,000.0,034.6,027.6,9.0,0000.0,0013.63,0004.64,0004.01
2023-11-16 10:17:00,SystemResetWarning,0824.7,5.00,000.00,026.1,025.1,000.0,034.6,027.6,9.0,0000.0,0013.93,0004.77,0004.11
2023-11-16 10:18:00,SystemResetWarning,0824.7,5.00,000.00,026.1,025.1,000.0,034.6,027.6,8.9,0000.0,0014.71,0004.87,0004.19
2023-11-16 10:19:00,SystemResetWarning,0824.5,5.00,000.00,026.2,025.1,000.0,034.6,027.5,8.8,0000.0,0014.58,0004.90,0004.20
2023-11-16 10:20:00,SystemResetWarning,0824.6,5.00,000.00,026.1,025.1,000.0,034.6,027.5,8.6,0000.0,0014.38,0005.06,0004.29
2023-11-16 10:21:00,SystemResetWarning,0824.7,5.00,000.00,026.1,025.1,000.0,034.6,027.6,8.5,0000.0,0014.96,0005.44,0004.55
2023-11-16 10:22:00,SystemResetWarning,0824.6,5.00,000.00,026.1,025.1,000.0,034.6,027.5,8.6,0000.0,0016.24,0005.90,0004.91
2023-11-16 10:23:00,SystemResetWarning,0824.5,4.99,000.00,026.1,025.1,000.0,034.5,027.5,8.4,0000.0,0016.69,0006.44,0005.31
2023-11-16 10:24:00,SystemResetWarning,0824.5,4.99,000.00,026.1,025.1,000.0,034.5,027.5,8.2,0000.0,0017.39,0006.87,0005.59
2023-11-16 10:25:00,SystemResetWarning,0824.6,5.00,000.00,026.1,025.1,000.0,034.5,027.5,8.4,0000.0,0017.11,0007.27,0005.84
2023-11-16 10:26:00,SystemResetWarning,0824.5,5.00,000.00,026.1,025.1,000.0,034.5,027.5,8.4,0000.0,0016.50,0007.41,0005.96
2023-11-16 10:27:00,SystemResetWarning,0824.4,5.00,000.00,026.1,025.1,000.0,034.5,027.5,8.4,0000.0,0017.55,0007.59,0006.10
2023-11-16 10:28:00,SystemResetWarning,0824.3,5.00,000.00,026.1,025.1,000.0,034.5,027.6,8.4,0000.0,0017.92,0007.87,0006.30
2023-11-16 10:29:00,SystemResetWarning,0824.3,5.00,000.00,026.1,025.1,000.0,034.5,027.5,8.4,0005.5,0017.78,0008.05,0006.47
2023-11-16 10:30:00,SystemResetWarning,0824.3,5.01,000.00,026.1,025.1,000.0,034.5,027.5,8.4,0001.9,0018.94,0008.14,0006.58
2023-11-16 10:31:00,SystemResetWarning,0824.3,5.00,000.00,026.1,025.1,000.0,034.5,027.5,8.4,0000.0,0019.00,0008.10,0006.58
2023-11-16 10:32:00,SystemResetWarning,0824.2,5.00,000.00,026.1,025.1,000.0,034.5,027.5,8.4,0000.0,0019.37,0007.89,0006.48
2023-11-16 10:33:00,SystemResetWarning,0824.3,4.99,000.00,026.1,025.1,000.0,034.5,027.5,8.4,0000.0,0019.28,0007.78,0006.38
2023-11-16 10:34:00,SystemResetWarning,0824.3,5.00,000.00,026.1,025.1,000.0,034.5,027.6,8.4,0000.0,0019.61,0007.62,0006.23
2023-11-16 10:35:00,SystemResetWarning,0824.1,4.99,000.00,026.1,025.1,000.0,034.5,027.6,8.4,0002.2,0020.05,0007.46,0006.14
2023-11-16 10:36:00,SystemResetWarning,0824.2,4.99,000.00,026.1,025.2,000.0,034.5,027.6,8.4,0002.4,0020.15,0007.28,0006.00
2023-11-16 10:37:00,SystemResetWarning,0824.0,4.99,000.00,026.1,025.2,000.0,034.5,027.6,8.4,0000.0,0019.89,0007.16,0005.94
2023-11-16 10:38:00,SystemResetWarning,0823.9,5.00,000.00,026.2,025.2,000.0,034.5,027.6,8.4,0000.0,0019.91,0007.16,0005.97
2023-11-16 10:39:00,SystemResetWarning,0823.8,5.02,000.00,026.2,025.2,000.0,034.5,027.6,8.2,0000.0,0020.15,0007.07,0005.93
2023-11-16 10:40:00,SystemResetWarning,0823.7,4.99,000.00,026.2,025.2,000.0,034.5,027.6,7.9,0000.0,0021.09,0007.08,0005.93
2023-11-16 10:41:00,SystemResetWarning,0823.7,4.99,000.00,026.2,025.2,000.0,034.5,027.6,8.0,0000.0,0020.68,0007.16,0005.98
2023-11-16 10:42:00,SystemResetWarning,0823.6,5.01,000.00,026.2,025.2,000.0,034.5,027.6,8.0,0000.0,0020.17,0007.22,0006.00
2023-11-16 10:43:00,SystemResetWarning,0823.6,5.00,000.00,026.2,025.2,000.0,034.5,027.6,7.8,0000.0,0020.77,0007.24,0006.01
2023-11-16 10:44:00,SystemResetWarning,0823.8,5.01,000.00,026.2,025.2,000.0,034.5,027.6,7.7,0000.0,0020.11,0007.20,0006.03
2023-11-16 10:45:00,SystemResetWarning,0823.8,5.00,000.00,026.2,025.2,000.0,034.5,027.6,8.0,0000.0,0019.85,0007.17,0006.04
2023-11-16 10:46:00,SystemResetWarning,0823.8,5.00,000.00,026.2,025.2,000.0,034.5,027.6,8.1,0000.0,0018.81,0007.06,0005.98
2023-11-16 10:47:00,SystemResetWarning,0823.8,4.99,000.00,026.2,025.2,000.0,034.5,027.6,8.3,0000.0,0018.55,0006.97,0005.92
2023-11-16 10:48:00,SystemResetWarning,0823.9,5.00,000.00,026.2,025.2,000.0,034.5,027.6,8.4,0000.0,0018.79,0007.01,0005.90
2023-11-16 10:49:00,SystemResetWarning,0823.8,5.01,000.00,026.2,025.2,000.0,034.5,027.6,8.5,0000.0,0017.98,0006.88,0005.76
2023-11-16 10:50:00,SystemResetWarning,0823.8,5.00,000.00,026.2,025.2,000.0,034.5,027.6,8.6,0000.0,0017.10,0006.71,0005.58
2023-11-16 10:51:00,SystemResetWarning,0823.8,5.00,000.00,026.2,025.2,000.0,034.5,027.6,8.6,0000.0,0016.45,0006.52,0005.44
2023-11-16 10:52:00,SystemResetWarning,0823.8,5.00,000.00,026.2,025.2,000.0,034.5,027.7,8.6,0000.0,0015.94,0006.40,0005.37
2023-11-16 10:53:00,SystemResetWarning,0823.8,4.99,000.00,026.2,025.2,000.0,034.5,027.6,8.6,0000.0,0015.98,0006.34,0005.35
2023-11-16 10:54:00,SystemResetWarning,0823.8,5.00,000.00,026.2,025.2,000.0,034.5,027.6,8.7,0000.0,0015.26,0006.32,0005.35
2023-11-16 10:55:00,SystemResetWarning,0823.6,5.01,000.00,026.2,025.2,000.0,034.5,027.6,8.7,0000.0,0017.24,0006.39,0005.35
2023-11-16 10:56:00,SystemResetWarning,0823.6,5.01,000.00,026.2,025.2,000.0,034.5,027.6,8.7,0000.0,0017.25,0006.41,0005.38
2023-11-16 10:57:00,SystemResetWarning,0823.5,4.98,000.00,026.2,025.2,000.0,034.5,027.6,8.6,0000.0,0017.60,0006.55,0005.49
2023-11-16 10:58:00,SystemResetWarning,0823.5,4.99,000.00,026.2,025.2,000.0,034.5,027.7,8.6,0000.0,0016.92,0006.69,0005.63
2023-11-16 10:59:00,SystemResetWarning,0823.7,5.01,000.00,026.2,025.2,000.0,034.5,027.6,8.6,0000.0,0016.97,0006.86,0005.78
